Regional Weather Roundup
Issued by NWS Cleveland, OH

Home | Current Version | Previous Version | Text Only | Print | Product List | Glossary Off
Versions: 1 2 3 4 5 6 7 8 9 10 11 12 13 14 15 16 17 18 19 20 21 22 23 24 25 26 27 28 29 30 31 32 33 34 35 36 37 38 39 40 41 42 43 44 45 46 47 48 49 50

000
ASUS41 KCLE 242000
RWRCLE
OHIO REGIONAL WEATHER ROUNDUP
NATIONAL WEATHER SERVICE WILMINGTON, OH
300 PM EST TUE JAN 24 2017

NOTE: "FAIR" INDICATES FEW OR NO CLOUDS BELOW 12,000 FEET WITH NO
SIGNIFICANT WEATHER AND/OR OBSTRUCTIONS TO VISIBILITY.

OHZ001>008-015>018-024>027-034-035-043-044-242100-
   NORTHWEST OHIO

CITY           SKY/WX    TMP DP  RH WIND       PRES   REMARKS
DEFIANCE       CLOUDY    39  34  82 W8G18     29.80R
FINDLAY        CLOUDY    42  36  79 NW9       29.77R
TOLEDO EXPRESS CLOUDY    41  37  86 W12       29.77R
TOLEDO EXEC    CLOUDY    42  38  85 W16       29.77R
LIMA           CLOUDY    41  37  86 W13       29.79R
$$

OHZ009>014-019>023-028>033-038-089-242100-
   NORTHEAST OHIO

CITY           SKY/WX    TMP DP  RH WIND       PRES   REMARKS
CLE-HOPKINS    DRIZZLE   40  37  89 W9        29.74S
CLE-LAKEFRONT  FOG       37  36  96 W13       29.72S VSB 1/2
CUY CO. ARPT   FOG       36  36 100 W12       29.72  VSB 1
LORAIN-ELYRIA  CLOUDY    38  35  89 NW14      29.73S
ASHTABULA      CLOUDY    34  34 100 NW10      29.70S FOG     WCI  26
AKRON-CANTON   DRIZZLE   39  35  86 W12       29.71R FOG
WOOSTER        NOT AVBL
MANSFIELD      CLOUDY    39  39 100 NW9       29.73S
YOUNGSTOWN     CLOUDY    36  34  92 W9        29.69R
$$

OHZ042-051>053-060>062-070>072-077>081-242100-
  SOUTHWEST OHIO

CITY           SKY/WX    TMP DP  RH WIND       PRES   REMARKS
CINC-COVINGTON CLOUDY    43  35  73 W12       29.83R
CINC-LUNKEN    CLOUDY    45  36  70 W10       29.86R
HAMILTON       CLOUDY    45  37  73 W7        29.85R
DAYTON         NOT AVBL
WRIGHT-PAT AFB NOT AVBL
DAYTON GENERAL CLOUDY    42  36  79 W10       29.81R
WILMINGTON     CLOUDY    41  38  89 W10       29.81R
$$

OHZ036-037-039>041-045>050-054>059-063>069-073>076-082>088-242100-
  CENTRAL AND SOUTHEAST OHIO

CITY           SKY/WX    TMP DP  RH WIND       PRES   REMARKS
COLUMBUS       CLOUDY    44  40  85 W12       29.76F
OSU AIRPORT    CLOUDY    42  40  92 NW12      29.77S
BOLTON FIELD   CLOUDY    41  39  93 NW10      29.79S FOG
RICKENBACK AFB NOT AVBL
NEWARK         CLOUDY    44  39  82 W9        29.75S
MARION         CLOUDY    41  39  93 NW10      29.77R FOG
LANCASTER      CLOUDY    44  40  85 W8        29.77S
ZANESVILLE     CLOUDY    43  38  82 NW8       29.75R
NEW PHILLY     CLOUDY    41  38  89 NW7       29.73S
$$



USA.gov is the U.S. government's official web portal to all federal, state and local government web resources and services.